TimeEST,TemperatureF,Dew PointF,Humidity,Sea Level PressureIn,VisibilityMPH,Wind Direction,Wind SpeedMPH,Gust SpeedMPH,PrecipitationIn,Events,Conditions,WindDirDegrees,DateUTC
12:35 AM,8.6,1.4,73,30.36,10.0,NW,3.5,-,N/A,,Overcast,310,2014-02-11 05:35:00
12:55 AM,8.6,1.4,73,30.37,10.0,NW,3.5,-,N/A,,Overcast,310,2014-02-11 05:55:00
1:15 AM,8.6,3.2,79,30.37,10.0,NW,3.5,-,N/A,,Overcast,320,2014-02-11 06:15:00
1:35 AM,8.6,3.2,79,30.37,10.0,West,4.6,-,N/A,,Overcast,270,2014-02-11 06:35:00
1:55 AM,8.6,3.2,79,30.37,10.0,West,4.6,-,N/A,,Overcast,270,2014-02-11 06:55:00
2:15 AM,8.6,3.2,79,30.37,10.0,WNW,4.6,-,N/A,,Overcast,290,2014-02-11 07:15:00
2:35 AM,8.6,1.4,73,30.37,10.0,West,5.8,-,N/A,,Overcast,280,2014-02-11 07:35:00
2:55 AM,6.8,1.4,79,30.37,10.0,West,4.6,-,N/A,,Overcast,270,2014-02-11 07:55:00
3:15 AM,6.8,1.4,79,30.37,10.0,Calm,Calm,-,N/A,,Overcast,0,2014-02-11 08:15:00
3:35 AM,5.0,1.4,85,30.36,10.0,Calm,Calm,-,N/A,,Overcast,0,2014-02-11 08:35:00
3:55 AM,6.8,-2.2,67,30.36,10.0,Calm,Calm,-,N/A,,Overcast,0,2014-02-11 08:55:00
4:15 AM,6.8,1.4,79,30.37,10.0,NNW,3.5,-,N/A,,Overcast,330,2014-02-11 09:15:00
4:35 AM,5.0,1.4,85,30.36,10.0,Calm,Calm,-,N/A,,Overcast,0,2014-02-11 09:35:00
4:55 AM,5.0,1.4,85,30.36,10.0,Calm,Calm,-,N/A,,Overcast,0,2014-02-11 09:55:00
5:15 AM,5.0,1.4,85,30.37,10.0,Calm,Calm,-,N/A,,Overcast,0,2014-02-11 10:15:00
5:35 AM,5.0,1.4,85,30.38,10.0,Calm,Calm,-,N/A,,Overcast,0,2014-02-11 10:35:00
5:55 AM,5.0,-0.4,78,30.39,10.0,Calm,Calm,-,N/A,,Overcast,0,2014-02-11 10:55:00
6:15 AM,3.2,-0.4,85,30.39,10.0,Calm,Calm,-,N/A,,Overcast,0,2014-02-11 11:15:00
6:35 AM,1.4,-2.2,85,30.40,10.0,Calm,Calm,-,N/A,,Overcast,0,2014-02-11 11:35:00
6:55 AM,-0.4,-7.6,72,30.41,10.0,Calm,Calm,-,N/A,,Overcast,0,2014-02-11 11:55:00
7:15 AM,-2.2,-5.8,85,30.41,10.0,Calm,Calm,-,N/A,,Mostly Cloudy,0,2014-02-11 12:15:00
7:35 AM,-2.2,-5.8,85,30.42,10.0,Calm,Calm,-,N/A,,Partly Cloudy,0,2014-02-11 12:35:00
7:55 AM,-7.6,-9.4,92,30.42,10.0,Calm,Calm,-,N/A,,Clear,0,2014-02-11 12:55:00
8:15 AM,-4.0,-13.0,65,30.44,8.0,Calm,Calm,-,N/A,,Clear,0,2014-02-11 13:15:00
8:35 AM,-4.0,-11.2,71,30.44,7.0,Calm,Calm,-,N/A,,Clear,0,2014-02-11 13:35:00
8:55 AM,-2.2,-5.8,85,30.44,8.0,Calm,Calm,-,N/A,,Clear,0,2014-02-11 13:55:00
9:15 AM,1.4,-7.6,66,30.45,8.0,Calm,Calm,-,N/A,,Clear,0,2014-02-11 14:15:00
9:35 AM,1.4,-4.0,78,30.45,5.0,Calm,Calm,-,N/A,,Clear,0,2014-02-11 14:35:00
9:55 AM,5.0,-0.4,78,30.46,9.0,WSW,3.5,-,N/A,,Clear,240,2014-02-11 14:55:00
10:15 AM,8.6,1.4,73,30.46,10.0,Calm,Calm,-,N/A,,Clear,0,2014-02-11 15:15:00
10:35 AM,10.4,-5.8,48,30.46,10.0,WSW,3.5,-,N/A,,Clear,240,2014-02-11 15:35:00
10:55 AM,10.4,-4.0,52,30.46,10.0,Calm,Calm,-,N/A,,Clear,0,2014-02-11 15:55:00
11:15 AM,12.2,-2.2,53,30.47,10.0,SW,3.5,-,N/A,,Clear,230,2014-02-11 16:15:00
11:35 AM,12.2,-2.2,53,30.47,10.0,Calm,Calm,-,N/A,,Clear,0,2014-02-11 16:35:00
11:55 AM,12.2,1.4,62,30.46,10.0,SW,3.5,-,N/A,,Clear,230,2014-02-11 16:55:00
12:15 PM,12.2,1.4,62,30.46,10.0,SW,3.5,-,N/A,,Clear,220,2014-02-11 17:15:00
12:35 PM,10.4,-0.4,62,30.46,10.0,Calm,Calm,-,N/A,,Clear,0,2014-02-11 17:35:00
12:55 PM,14.0,1.4,57,30.45,10.0,Calm,Calm,-,N/A,,Clear,0,2014-02-11 17:55:00
1:15 PM,15.8,1.4,53,30.45,10.0,WNW,4.6,-,N/A,,Clear,300,2014-02-11 18:15:00
1:35 PM,14.0,1.4,57,30.45,10.0,WNW,3.5,-,N/A,,Clear,290,2014-02-11 18:35:00
1:55 PM,14.0,-0.4,53,30.44,10.0,Variable,4.6,-,N/A,,Clear,0,2014-02-11 18:55:00
2:15 PM,14.0,-0.4,53,30.44,10.0,NW,4.6,-,N/A,,Clear,310,2014-02-11 19:15:00
2:35 PM,12.2,-0.4,57,30.43,10.0,NNE,5.8,-,N/A,,Clear,20,2014-02-11 19:35:00
2:55 PM,12.2,-0.4,57,30.43,10.0,Variable,4.6,-,N/A,,Clear,0,2014-02-11 19:55:00
3:15 PM,15.8,1.4,53,30.43,10.0,WNW,4.6,-,N/A,,Clear,300,2014-02-11 20:15:00
3:35 PM,12.2,-0.4,57,30.42,10.0,Calm,Calm,-,N/A,,Clear,0,2014-02-11 20:35:00
3:55 PM,14.0,-0.4,53,30.42,10.0,Calm,Calm,-,N/A,,Clear,0,2014-02-11 20:55:00
4:15 PM,15.8,-0.4,49,30.42,10.0,West,3.5,-,N/A,,Clear,280,2014-02-11 21:15:00
4:35 PM,12.2,-0.4,57,30.42,10.0,Calm,Calm,-,N/A,,Clear,0,2014-02-11 21:35:00
4:55 PM,12.2,-0.4,57,30.42,10.0,Calm,Calm,-,N/A,,Clear,0,2014-02-11 21:55:00
5:15 PM,10.4,-0.4,62,30.42,10.0,Calm,Calm,-,N/A,,Clear,0,2014-02-11 22:15:00
5:35 PM,10.4,-0.4,62,30.41,10.0,Calm,Calm,-,N/A,,Clear,0,2014-02-11 22:35:00
5:55 PM,10.4,-4.0,52,30.41,10.0,Calm,Calm,-,N/A,,Clear,0,2014-02-11 22:55:00
6:15 PM,8.6,-0.4,67,30.42,10.0,Calm,Calm,-,N/A,,Clear,0,2014-02-11 23:15:00
6:35 PM,3.2,-4.0,72,30.42,10.0,Calm,Calm,-,N/A,,Clear,0,2014-02-11 23:35:00
6:55 PM,1.4,-4.0,78,30.42,10.0,Calm,Calm,-,N/A,,Clear,0,2014-02-11 23:55:00
7:15 PM,1.4,-5.8,72,30.43,10.0,Calm,Calm,-,N/A,,Clear,0,2014-02-12 00:15:00
7:35 PM,-0.4,-5.8,78,30.41,10.0,Calm,Calm,-,N/A,,Clear,0,2014-02-12 00:35:00
7:55 PM,-0.4,-5.8,78,30.42,10.0,Calm,Calm,-,N/A,,Clear,0,2014-02-12 00:55:00
8:15 PM,-2.2,-5.8,85,30.41,10.0,Calm,Calm,-,N/A,,Clear,0,2014-02-12 01:15:00
8:35 PM,-2.2,-7.6,78,30.42,10.0,Calm,Calm,-,N/A,,Clear,0,2014-02-12 01:35:00
8:55 PM,-2.2,-7.6,78,30.42,10.0,Calm,Calm,-,N/A,,Clear,0,2014-02-12 01:55:00
9:15 PM,-2.2,-7.6,78,30.40,10.0,Calm,Calm,-,N/A,,Clear,0,2014-02-12 02:15:00
9:35 PM,-4.0,-7.6,85,30.40,10.0,Calm,Calm,-,N/A,,Clear,0,2014-02-12 02:35:00
9:55 PM,-5.8,-9.4,84,30.40,10.0,Calm,Calm,-,N/A,,Clear,0,2014-02-12 02:55:00
10:15 PM,-7.6,-11.2,84,30.41,10.0,Calm,Calm,-,N/A,,Clear,0,2014-02-12 03:15:00
10:35 PM,-9.4,-11.2,92,30.41,10.0,Calm,Calm,-,N/A,,Clear,0,2014-02-12 03:35:00
10:55 PM,-7.6,-11.2,84,30.41,10.0,Calm,Calm,-,N/A,,Clear,0,2014-02-12 03:55:00
11:15 PM,-7.6,-11.2,84,30.41,10.0,Calm,Calm,-,N/A,,Clear,0,2014-02-12 04:15:00
11:35 PM,-7.6,-11.2,84,30.41,10.0,Calm,Calm,-,N/A,,Clear,0,2014-02-12 04:35:00
11:55 PM,-9.4,-13.0,84,30.40,10.0,Calm,Calm,-,N/A,,Clear,0,2014-02-12 04:55:00